Flag for Germany Weather past 2 weeks in Paderborn, North Rhine-Westphalia, Germany

Now
46 °F

Passing clouds.


Feels Like: 45 °F
Forecast: 45 / 57 °F
Wind: 3 mph from South

Location: Paderborn / Lippstadt

Current Time: May 25, 2015 at 1:47:11 AM

Latest Report: May 25, 2015 at 1:20 AM


Visibility: N/A

Pressure: 30.01 "Hg

Humidity: 87%

Dew point: 43 °F

Location of PaderbornLocation

Historic Weather in Paderborn — Graph

°F

Paderborn temperature yesterday

Maximum temperature yesterday: 63 °F (at 2:50 PM)
Minimum temperature yesterday: 41 °F (at 2:50 AM)
Average temperature yesterday: 53 °F

Past Weeks' High & Low Weather Summary

 TemperatureHumidityPressure
High77 °F (May 12, 12:20 PM)100% (May 16, 7:20 PM)30.33 "Hg (May 16, 7:20 PM)
Low37 °F (May 15, 3:50 AM)31% (May 11, 4:20 PM)29.62 "Hg (May 18, 9:20 PM)
Average53 °F63%30.08 "Hg
* Reported May 10 12:20 AM — May 25 12:50 AM, Paderborn, Weather by CustomWeather, © 2015

Note: Actual official high and low records may vary slightly from our data, if they occured in-between our weather recording intervals... More about our weather records

Advertising

Paderborn weather history for previous 24 hours

 ConditionsComfort  
Time TempWeatherWind HumidityBarometerVisibility
12:50 AM
Mon, May 25
48 °FClear.2 mph82%30.01 "Hg10 mi
12:20 AM50 °FPassing clouds.3 mph82%30.01 "HgN/A
11:50 PM
Sun, May 24
50 °FPassing clouds.3 mph76%30.04 "HgN/A
11:20 PM50 °FClear.3 mph82%30.04 "Hg10 mi
10:50 PM50 °FClear.3 mph76%30.04 "Hg10 mi
10:20 PM52 °FSunny.1 mph77%30.04 "Hg10 mi
9:50 PM54 °FSunny.1 mph72%30.04 "Hg10 mi
9:20 PM57 °FSunny.1 mph63%30.04 "Hg10 mi
8:50 PM59 °FPassing clouds.3 mph59%30.04 "HgN/A
8:20 PM63 °FSunny.2 mph52%30.04 "Hg10 mi
7:50 PM63 °FPassing clouds.5 mph52%30.04 "HgN/A
7:20 PM61 °FPassing clouds.6 mph59%30.04 "HgN/A
6:50 PM63 °FPassing clouds.6 mph56%30.04 "HgN/A
6:20 PM63 °FPassing clouds.5 mph56%30.04 "HgN/A
5:50 PM63 °FPassing clouds.5 mph56%30.04 "HgN/A
5:20 PM61 °FPassing clouds.6 mph59%30.07 "HgN/A
4:50 PM63 °FPassing clouds.5 mph56%30.07 "HgN/A
4:20 PM63 °FPassing clouds.6 mph56%30.07 "HgN/A
3:50 PM63 °FScattered clouds.3 mph56%30.07 "HgN/A
3:20 PM63 °FScattered clouds.6 mph52%30.07 "HgN/A
2:50 PM63 °FScattered clouds.5 mph52%30.09 "HgN/A
2:20 PM61 °FBroken clouds.5 mph55%30.09 "HgN/A
1:50 PM61 °FBroken clouds.5 mph55%30.09 "HgN/A
1:20 PM59 °FScattered clouds.5 mph59%30.09 "HgN/A
12:50 PM59 °FScattered clouds.5 mph55%30.09 "HgN/A
12:20 PM59 °FScattered clouds.3 mph55%30.09 "HgN/A
11:50 AM59 °FScattered clouds.5 mph55%30.12 "HgN/A
11:20 AM57 °FScattered clouds.6 mph59%30.12 "HgN/A
10:50 AM57 °FPassing clouds.3 mph59%30.12 "HgN/A
10:20 AM55 °FPassing clouds.3 mph63%30.12 "HgN/A
9:50 AM54 °FScattered clouds.2 mph63%30.12 "HgN/A
9:20 AM52 °FPartly sunny.3 mph72%30.12 "HgN/A
8:50 AM50 °FPartly sunny.2 mph71%30.15 "HgN/A
8:20 AM48 °FPartly sunny.5 mph76%30.15 "HgN/A
7:50 AM46 °FPartly sunny.5 mph82%30.12 "HgN/A
7:20 AM46 °FPartly sunny.5 mph82%30.12 "HgN/A
6:50 AM45 °FPartly sunny.2 mph93%30.15 "HgN/A
6:20 AM45 °FPassing clouds.2 mph87%30.15 "HgN/A
5:50 AM45 °FPassing clouds.1 mph87%30.12 "HgN/A
5:20 AM45 °FPassing clouds.3 mph87%30.15 "HgN/A
4:50 AM45 °FPassing clouds.3 mph87%30.15 "HgN/A
4:20 AM43 °FPassing clouds.2 mph93%30.15 "HgN/A
3:50 AM41 °FPassing clouds.1 mph93%30.15 "HgN/A
3:20 AM41 °FPassing clouds.2 mph93%30.15 "HgN/A
2:50 AM41 °FPassing clouds.2 mph93%30.15 "HgN/A
2:20 AM43 °FPassing clouds.1 mph87%30.15 "HgN/A
1:50 AM46 °FPassing clouds.2 mph82%30.15 "HgN/A
1:20 AM46 °FPassing clouds.2 mph82%30.15 "HgN/A
Weather by CustomWeather, © 2015

See weather overviewHow to use our weather pages